Volver al catálogo

GONETS M 10

M20

ActivoComunicacionesPO
NORAD 40063·PAYLOAD·🇷🇺 Russia

Lanzado Jul 3, 2014 desde Plesetsk Cosmodrome

Loading…

Próximos Pases (próximas 24 horas)

TLE

ActualizadoSource: Space-Track

Época: Sep 14, 2026, 13:53 UTC

1 40063U 14036C   26257.57883131  .00000035  00000-0  17889-3 0  9999
2 40063  82.5049 252.1422 0020865 309.6858  50.2381 12.42947887553353

Sigue GONETS M 10 en tiempo real con AllMySat

Download on the App Store